User: anonymous   Login
Location: Untermarchtal
(48.2403°N, 9.6117°E)
Time: 04:01:27
(UTC+02:00)
Language:

ISS - Orbit

View from above orbital plane
View from above orbital plane
View from above satellite
View from above satellite

Ground track
Ground track

The orbit data is extracted from the following two-line orbital elements,

1 25544U 98067A   20294.82653175  .00000874  00000-0  23755-4 0  9999
2 25544  51.6440  86.7970 0001451  50.1016  55.5819 15.49317942251492
Epoch (UTC): 20 October 2020 19:50:12
Eccentricity: 0.0001451
inclination: 51.6440°
perigee height: 418 km
apogee height: 420 km
right ascension of ascending node: 86.7970°
argument of perigee: 50.1016°
revolutions per day: 15.49317942
mean anomaly at epoch: 55.5819°
orbit number at epoch: 25149

The dashed part of the orbit path shows where the satellite is in the earth's shadow,  

DLR